| time (UTC) | temp C | wind direction | speed KPH | gust KPH | rain 1hr cm | rain 24hr cm | rain mn cm | humidity % | barometer mb |
| 20260901234956 | 23 | 84 | 0.0 | 0.0 | 0.13 | 0.74 | 0.74 | 99 | 1014.3 |
| 20260901234450 | 23 | 63 | 0.0 | 0.0 | 0.13 | 0.74 | 0.74 | 99 | 1014.3 |
| 20260901233950 | 23 | 31 | 0.0 | 0.0 | 0.00 | 0.71 | 0.71 | 99 | 1014.2 |
| 20260901233445 | 23 | 97 | 0.0 | 0.0 | 0.00 | 0.71 | 0.71 | 99 | 1014.3 |
| 20260901232942 | 23 | 282 | 0.0 | 0.0 | 0.00 | 0.71 | 0.71 | 99 | 1013.9 |
| 20260901232436 | 23 | 272 | 0.0 | 0.0 | 0.18 | 0.71 | 0.71 | 99 | 1013.7 |
| 20260901231931 | 23 | 279 | 0.0 | 0.0 | 0.18 | 0.71 | 0.71 | 99 | 1014.4 |
| 20260901231428 | 23 | 294 | 0.0 | 0.0 | 0.00 | 0.69 | 0.69 | 99 | 1014.0 |
| 20260901230924 | 23 | 20 | 0.0 | 0.0 | 0.13 | 0.69 | 0.69 | 99 | 1014.1 |
| 20260901230423 | 23 | 51 | 0.0 | 0.0 | 0.13 | 0.69 | 0.69 | 99 | 1013.5 |
| 20260901225918 | 23 | 33 | 0.0 | 0.0 | 0.00 | 0.66 | 0.66 | 99 | 1013.8 |
| 20260901225413 | 23 | 232 | 0.0 | 0.0 | 0.00 | 0.66 | 0.66 | 99 | 1013.9 |
| 20260901224908 | 23 | 306 | 0.0 | 0.0 | 0.00 | 0.66 | 0.66 | 99 | 1013.9 |
| 20260901224404 | 23 | 101 | 0.0 | 0.0 | 0.00 | 0.66 | 0.66 | 99 | 1013.9 |
| 20260901223900 | 23 | 73 | 0.0 | 0.0 | 0.00 | 0.66 | 0.66 | 99 | 1014.0 |
| 20260901223355 | 23 | 93 | 0.0 | 0.0 | 0.18 | 0.66 | 0.66 | 99 | 1013.5 |
| 20260901222851 | 23 | 75 | 0.0 | 0.0 | 1.55 | 0.66 | 0.66 | 99 | 1013.4 |
| 20260901222347 | 23 | 29 | 0.0 | 0.0 | 2.46 | 0.64 | 0.64 | 99 | 1013.3 |
| 20260901221843 | 23 | 118 | 0.0 | 0.0 | 1.37 | 0.41 | 0.41 | 99 | 1013.6 |
| 20260901221338 | 24 | 22 | 0.0 | 0.0 | 0.48 | 0.25 | 0.25 | 96 | 1013.5 |
| 20260901220838 | 25 | 278 | 0.0 | 0.0 | 0.00 | 0.18 | 0.18 | 93 | 1013.3 |
| 20260901220337 | 25 | 9 | 0.0 | 0.0 | 0.00 | 0.18 | 0.18 | 91 | 1013.3 |
| 20260901215836 | 25 | 273 | 0.0 | 0.0 | 0.00 | 0.18 | 0.18 | 90 | 1013.3 |
| 20260901215335 | 25 | 347 | 0.0 | 0.0 | 0.00 | 0.18 | 0.18 | 89 | 1013.4 |
| 20260901214834 | 25 | 39 | 0.0 | 0.0 | 0.00 | 0.18 | 0.18 | 89 | 1013.4 |
| 20260901214333 | 25 | 282 | 0.0 | 0.0 | 0.00 | 0.18 | 0.18 | 89 | 1013.2 |
| 20260901213828 | 25 | 331 | 0.0 | 0.0 | 0.00 | 0.18 | 0.18 | 89 | 1013.5 |
| 20260901213328 | 26 | 285 | 0.0 | 0.0 | 0.00 | 0.18 | 0.18 | 88 | 1013.1 |
| 20260901212822 | 26 | 337 | 0.0 | 0.0 | 0.00 | 0.18 | 0.18 | 88 | 1013.4 |
| 20260901212318 | 26 | 264 | 0.0 | 0.0 | 0.00 | 0.18 | 0.18 | 87 | 1013.3 |
| 20260901211814 | 26 | 334 | 0.0 | 0.0 | 0.00 | 0.18 | 0.18 | 86 | 1013.0 |
| 20260901211310 | 27 | 272 | 0.0 | 0.0 | 0.00 | 0.18 | 0.18 | 85 | 1013.5 |
| 20260901210805 | 27 | 357 | 0.0 | 0.0 | 0.00 | 0.18 | 0.18 | 84 | 1013.2 |
| 20260901210301 | 27 | 344 | 0.0 | 0.0 | 0.00 | 0.18 | 0.18 | 84 | 1013.2 |
| 20260901205757 | 27 | 268 | 0.0 | 0.0 | 0.00 | 0.18 | 0.18 | 84 | 1013.3 |
| 20260901205256 | 27 | 338 | 0.0 | 0.0 | 0.00 | 0.18 | 0.18 | 83 | 1013.1 |
| 20260901204752 | 28 | 226 | 0.0 | 0.0 | 0.00 | 0.18 | 0.18 | 82 | 1013.1 |
| 20260901204248 | 27 | 278 | 0.0 | 0.0 | 0.00 | 0.18 | 0.18 | 83 | 1013.1 |
| 20260901203742 | 28 | 208 | 0.0 | 0.0 | 0.00 | 0.18 | 0.18 | 83 | 1013.2 |
| 20260901203237 | 27 | 4 | 0.0 | 0.0 | 0.00 | 0.18 | 0.18 | 83 | 1013.3 |
| 20260901202736 | 28 | 250 | 0.0 | 0.0 | 0.00 | 0.18 | 0.18 | 83 | 1013.2 |
| 20260901202232 | 28 | 226 | 0.0 | 0.0 | 0.00 | 0.18 | 0.18 | 82 | 1013.3 |
| 20260901201727 | 28 | 37 | 0.0 | 0.0 | 0.00 | 0.18 | 0.18 | 80 | 1013.3 |
| 20260901201226 | 28 | 136 | 0.0 | 0.0 | 0.00 | 0.18 | 0.18 | 81 | 1013.3 |
| 20260901200720 | 27 | 87 | 0.0 | 0.0 | 0.00 | 0.18 | 0.18 | 83 | 1013.5 |
| 20260901200216 | 28 | 80 | 0.0 | 0.0 | 0.00 | 0.18 | 0.18 | 82 | 1013.3 |
| 20260901195713 | 28 | 18 | 0.0 | 0.0 | 0.00 | 0.18 | 0.18 | 80 | 1013.2 |
| 20260901195207 | 28 | 324 | 0.0 | 0.0 | 0.00 | 0.18 | 0.18 | 82 | 1013.2 |
| 20260901194704 | 28 | 313 | 0.0 | 0.0 | 0.00 | 0.18 | 0.18 | 81 | 1013.1 |
| 20260901194153 | 27 | 76 | 0.0 | 0.0 | 0.00 | 0.18 | 0.18 | 82 | 1013.2 |
| 20260901193648 | 27 | 118 | 0.0 | 0.0 | 0.00 | 0.18 | 0.18 | 82 | 1013.5 |
| 20260901193142 | 28 | 96 | 0.0 | 0.0 | 0.00 | 0.18 | 0.18 | 80 | 1013.4 |
| 20260901192637 | 28 | 111 | 0.0 | 0.0 | 0.00 | 0.18 | 0.18 | 79 | 1013.4 |
| 20260901192132 | 27 | 132 | 0.0 | 0.0 | 0.00 | 0.18 | 0.18 | 81 | 1013.4 |
| 20260901191628 | 27 | 33 | 0.0 | 0.0 | 0.00 | 0.18 | 0.18 | 81 | 1013.5 |
| 20260901191124 | 27 | 349 | 0.0 | 0.0 | 0.00 | 0.18 | 0.18 | 82 | 1013.7 |
| 20260901190620 | 27 | 317 | 0.0 | 0.0 | 0.00 | 0.18 | 0.18 | 83 | 1013.6 |
| 20260901190119 | 27 | 68 | 0.0 | 0.0 | 0.00 | 0.18 | 0.18 | 84 | 1013.6 |
| 20260901185617 | 27 | 82 | 0.0 | 0.0 | 0.00 | 0.18 | 0.18 | 85 | 1013.5 |
| 20260901185116 | 27 | 56 | 0.0 | 0.0 | 0.00 | 0.18 | 0.18 | 85 | 1013.4 |
| 20260901184613 | 27 | 96 | 0.0 | 0.0 | 0.00 | 0.18 | 0.18 | 85 | 1013.4 |
| 20260901184108 | 26 | 124 | 0.0 | 0.0 | 0.00 | 0.18 | 0.18 | 86 | 1013.6 |
| 20260901183607 | 26 | 106 | 0.0 | 0.0 | 0.00 | 0.18 | 0.18 | 86 | 1013.8 |
| 20260901183103 | 26 | 288 | 0.0 | 0.0 | 0.00 | 0.18 | 0.18 | 86 | 1013.6 |
| 20260901182600 | 26 | 98 | 0.0 | 0.0 | 0.00 | 0.18 | 0.18 | 86 | 1013.5 |
| 20260901182059 | 26 | 97 | 0.0 | 0.0 | 0.00 | 0.18 | 0.18 | 85 | 1013.6 |
| 20260901181558 | 26 | 149 | 0.0 | 0.0 | 0.00 | 0.18 | 0.18 | 86 | 1013.5 |
| 20260901181052 | 26 | 87 | 0.0 | 0.0 | 0.00 | 0.18 | 0.18 | 86 | 1013.5 |
| 20260901180551 | 26 | 115 | 0.0 | 0.0 | 0.00 | 0.18 | 0.18 | 87 | 1013.4 |
| 20260901180046 | 26 | 119 | 0.0 | 0.0 | 0.00 | 0.18 | 0.18 | 87 | 1013.4 |
| 20260901175539 | 26 | 76 | 0.0 | 0.0 | 0.00 | 0.18 | 0.18 | 89 | 1013.2 |
| 20260901175034 | 26 | 157 | 0.0 | 0.0 | 0.00 | 0.18 | 0.18 | 90 | 1013.2 |
| 20260901174530 | 26 | 93 | 0.0 | 0.0 | 0.00 | 0.18 | 0.18 | 90 | 1013.4 |
| 20260901174026 | 26 | 104 | 0.0 | 0.0 | 0.00 | 0.18 | 0.18 | 90 | 1013.1 |
| 20260901173526 | 25 | 119 | 0.0 | 0.0 | 0.00 | 0.18 | 0.18 | 92 | 1013.3 |
| 20260901173022 | 24 | 73 | 0.0 | 0.0 | 0.00 | 0.18 | 0.18 | 94 | 1013.9 |
| 20260901172517 | 24 | 112 | 0.0 | 0.0 | 0.00 | 0.18 | 0.18 | 94 | 1014.5 |
| 20260901172015 | 23 | 73 | 0.0 | 0.0 | 0.00 | 0.18 | 0.18 | 97 | 1014.4 |
| 20260901171514 | 23 | 109 | 0.0 | 0.0 | 0.00 | 0.18 | 0.18 | 97 | 1014.4 |
| 20260901171014 | 23 | 104 | 0.0 | 0.0 | 0.00 | 0.18 | 0.18 | 97 | 1014.2 |
| 20260901170508 | 23 | 171 | 0.0 | 0.0 | 0.00 | 0.18 | 0.18 | 97 | 1014.4 |
| 20260901170009 | 23 | 110 | 0.0 | 0.0 | 0.00 | 0.18 | 0.18 | 97 | 1014.3 |
| 20260901165503 | 23 | 110 | 0.0 | 0.0 | 0.00 | 0.18 | 0.18 | 98 | 1014.2 |
| 20260901164958 | 23 | 96 | 0.0 | 0.0 | 0.00 | 0.18 | 0.18 | 97 | 1014.3 |
| 20260901164454 | 23 | 133 | 0.0 | 0.0 | 0.13 | 0.18 | 0.18 | 98 | 1014.4 |
| 20260901163948 | 23 | 90 | 0.0 | 0.0 | 0.13 | 0.18 | 0.18 | 98 | 1014.2 |
| 20260901163444 | 23 | 93 | 0.0 | 0.0 | 0.00 | 0.15 | 0.15 | 98 | 1014.3 |
| 20260901162942 | 23 | 88 | 0.0 | 0.0 | 0.00 | 0.15 | 0.15 | 98 | 1014.3 |
| 20260901162438 | 23 | 93 | 0.0 | 0.0 | 0.00 | 0.15 | 0.15 | 98 | 1014.6 |
| 20260901161931 | 23 | 78 | 0.0 | 0.0 | 0.00 | 0.15 | 0.15 | 98 | 1014.6 |
| 20260901161431 | 23 | 83 | 0.0 | 0.0 | 0.18 | 0.15 | 0.15 | 98 | 1015.0 |
| 20260901160926 | 23 | 71 | 0.0 | 0.0 | 0.18 | 0.15 | 0.15 | 98 | 1015.1 |
| 20260901160422 | 23 | 34 | 0.0 | 0.0 | 0.00 | 0.13 | 0.13 | 98 | 1015.3 |
| 20260901155921 | 23 | 18 | 0.0 | 0.0 | 0.13 | 0.13 | 0.13 | 98 | 1015.3 |
| 20260901155421 | 23 | 143 | 0.0 | 0.0 | 0.13 | 0.13 | 0.13 | 98 | 1015.5 |
| 20260901154918 | 23 | 98 | 0.0 | 0.0 | 0.00 | 0.10 | 0.10 | 98 | 1015.6 |
| 20260901154417 | 23 | 147 | 0.0 | 0.0 | 0.00 | 0.10 | 0.10 | 98 | 1015.7 |
| 20260901153912 | 23 | 101 | 0.0 | 0.0 | 0.30 | 0.10 | 0.10 | 99 | 1015.9 |
| 20260901153411 | 23 | 176 | 0.0 | 0.0 | 0.48 | 0.10 | 0.10 | 98 | 1015.8 |
| 20260901152906 | 23 | 156 | 0.0 | 0.0 | 0.30 | 0.08 | 0.08 | 96 | 1015.6 |
| 20260901152400 | 23 | 122 | 0.0 | 0.0 | 0.00 | 0.03 | 0.03 | 94 | 1015.5 |
| 20260901151855 | 23 | 131 | 0.0 | 0.0 | 0.00 | 0.03 | 0.03 | 92 | 1015.6 |
| 20260901151350 | 24 | 185 | 0.0 | 0.0 | 0.00 | 0.03 | 0.03 | 92 | 1015.6 |
| 20260901150849 | 24 | 138 | 0.0 | 0.0 | 0.00 | 0.03 | 0.03 | 91 | 1015.6 |
| 20260901150347 | 24 | 197 | 0.0 | 0.0 | 0.00 | 0.03 | 0.03 | 91 | 1015.9 |
| 20260901145844 | 25 | 198 | 0.0 | 0.0 | 0.00 | 0.03 | 0.03 | 90 | 1015.8 |
| 20260901145339 | 24 | 100 | 0.0 | 0.0 | 0.00 | 0.03 | 0.03 | 89 | 1015.7 |
| 20260901144834 | 24 | 100 | 0.0 | 0.0 | 0.00 | 0.03 | 0.03 | 90 | 1015.6 |
| 20260901144329 | 24 | 84 | 0.0 | 0.0 | 0.00 | 0.03 | 0.03 | 90 | 1015.5 |
| 20260901143825 | 24 | 99 | 0.0 | 0.0 | 0.00 | 0.03 | 0.03 | 89 | 1015.5 |
| 20260901143316 | 24 | 128 | 0.0 | 0.0 | 0.00 | 0.03 | 0.03 | 91 | 1015.5 |
| 20260901142812 | 24 | 137 | 0.0 | 0.0 | 0.00 | 0.03 | 0.03 | 91 | 1015.3 |
| 20260901142310 | 24 | 111 | 0.0 | 0.0 | 0.00 | 0.03 | 0.03 | 90 | 1015.6 |
| 20260901141806 | 24 | 109 | 0.0 | 0.0 | 0.00 | 0.03 | 0.03 | 90 | 1015.3 |
| 20260901141301 | 24 | 108 | 0.0 | 0.0 | 0.00 | 0.03 | 0.03 | 91 | 1015.4 |
| 20260901140800 | 24 | 93 | 0.0 | 0.0 | 0.00 | 0.03 | 0.03 | 91 | 1015.1 |
| 20260901140258 | 23 | 106 | 0.0 | 0.0 | 0.00 | 0.03 | 0.03 | 91 | 1015.2 |
| 20260901135754 | 24 | 84 | 0.0 | 0.0 | 0.00 | 0.03 | 0.03 | 90 | 1015.2 |
| 20260901135253 | 23 | 144 | 0.0 | 0.0 | 0.00 | 0.03 | 0.03 | 91 | 1015.1 |
| 20260901134750 | 24 | 113 | 0.0 | 0.0 | 0.00 | 0.03 | 0.03 | 90 | 1015.3 |
| 20260901134249 | 23 | 70 | 0.0 | 0.0 | 0.00 | 0.03 | 0.03 | 92 | 1015.3 |
| 20260901133748 | 23 | 135 | 0.0 | 0.0 | 0.00 | 0.03 | 0.03 | 92 | 1015.4 |
| 20260901133242 | 23 | 98 | 0.0 | 0.0 | 0.00 | 0.03 | 0.03 | 93 | 1015.2 |
| 20260901132741 | 23 | 67 | 0.0 | 0.0 | 0.00 | 0.03 | 0.03 | 94 | 1015.1 |
| 20260901132236 | 23 | 48 | 0.0 | 0.0 | 0.00 | 0.03 | 0.03 | 94 | 1015.1 |
| 20260901131730 | 23 | 91 | 0.0 | 0.0 | 0.00 | 0.03 | 0.03 | 94 | 1015.5 |
| 20260901131230 | 23 | 101 | 0.0 | 0.0 | 0.00 | 0.03 | 0.03 | 94 | 1015.2 |
| 20260901130725 | 23 | 86 | 0.0 | 0.0 | 0.00 | 0.03 | 0.03 | 94 | 1015.3 |
| 20260901130224 | 23 | 137 | 0.0 | 0.0 | 0.00 | 0.03 | 0.03 | 94 | 1015.2 |
| 20260901125722 | 23 | 136 | 0.0 | 0.0 | 0.00 | 0.03 | 0.03 | 95 | 1015.2 |
| 20260901125218 | 22 | 115 | 0.0 | 0.0 | 0.00 | 0.03 | 0.03 | 95 | 1015.3 |
| 20260901124712 | 23 | 100 | 0.0 | 0.0 | 0.00 | 0.03 | 0.03 | 93 | 1015.0 |
| 20260901124206 | 23 | 102 | 0.0 | 0.0 | 0.00 | 0.03 | 0.03 | 94 | 1015.3 |
| 20260901123701 | 23 | 91 | 0.0 | 0.0 | 0.00 | 0.03 | 0.03 | 94 | 1015.4 |
| 20260901123156 | 22 | 102 | 0.0 | 0.0 | 0.00 | 0.03 | 0.03 | 94 | 1015.4 |
| 20260901122654 | 22 | 88 | 0.0 | 0.0 | 0.00 | 0.03 | 0.03 | 96 | 1015.1 |
| 20260901122149 | 22 | 93 | 0.0 | 0.0 | 0.00 | 0.03 | 0.03 | 96 | 1015.4 |
| 20260901121643 | 22 | 96 | 0.0 | 0.0 | 0.00 | 0.03 | 0.03 | 97 | 1015.3 |
| 20260901121138 | 22 | 79 | 0.0 | 0.0 | 0.13 | 0.03 | 0.03 | 97 | 1015.3 |
| 20260901120633 | 22 | 93 | 0.0 | 0.0 | 0.13 | 0.03 | 0.03 | 97 | 1015.3 |
| 20260901120128 | 22 | 159 | 0.0 | 0.0 | 0.00 | 0.00 | 0.00 | 96 | 1015.5 |
| 20260901115623 | 22 | 143 | 0.0 | 0.0 | 0.00 | 0.00 | 0.00 | 96 | 1015.6 |
| 20260901115120 | 22 | 171 | 0.0 | 0.0 | 0.00 | 0.00 | 0.00 | 94 | 1015.5 |
| 20260901114616 | 22 | 100 | 0.0 | 0.0 | 0.00 | 0.00 | 0.00 | 91 | 1015.4 |
| 20260901114115 | 22 | 109 | 0.0 | 0.0 | 0.00 | 0.00 | 0.00 | 94 | 1015.3 |
| 20260901113613 | 22 | 74 | 0.0 | 0.0 | 0.00 | 0.00 | 0.00 | 93 | 1015.4 |
| 20260901113103 | 22 | 136 | 0.0 | 0.0 | 0.00 | 0.00 | 0.00 | 91 | 1015.6 |
| 20260901112602 | 22 | 96 | 0.0 | 0.0 | 0.00 | 0.00 | 0.00 | 93 | 1015.6 |
| 20260901112057 | 22 | 124 | 0.0 | 0.0 | 0.00 | 0.00 | 0.00 | 91 | 1015.8 |
| 20260901111556 | 22 | 147 | 0.0 | 0.0 | 0.00 | 0.00 | 0.00 | 91 | 1015.9 |
| 20260901111054 | 22 | 107 | 0.0 | 0.0 | 0.00 | 0.00 | 0.00 | 91 | 1015.7 |
| 20260901110551 | 22 | 115 | 0.0 | 0.0 | 0.00 | 0.00 | 0.00 | 92 | 1015.9 |
| 20260901110047 | 22 | 130 | 0.0 | 0.0 | 0.00 | 0.00 | 0.00 | 91 | 1015.5 |
| 20260901105543 | 22 | 134 | 0.0 | 0.0 | 0.00 | 0.00 | 0.00 | 92 | 1015.5 |
| 20260901105041 | 22 | 134 | 0.0 | 0.0 | 0.00 | 0.00 | 0.00 | 92 | 1015.4 |
| 20260901104538 | 22 | 107 | 0.0 | 0.0 | 0.00 | 0.00 | 0.00 | 92 | 1015.5 |
| 20260901104033 | 22 | 73 | 0.0 | 0.0 | 0.00 | 0.00 | 0.00 | 93 | 1015.4 |
| 20260901103527 | 22 | 111 | 0.0 | 0.0 | 0.00 | 0.00 | 0.00 | 92 | 1015.5 |
| 20260901103023 | 22 | 90 | 0.0 | 0.0 | 0.00 | 0.00 | 0.00 | 91 | 1015.3 |
| 20260901102517 | 22 | 117 | 0.0 | 0.0 | 0.00 | 0.00 | 0.00 | 93 | 1015.4 |
| 20260901102012 | 22 | 123 | 0.0 | 0.0 | 0.00 | 0.00 | 0.00 | 92 | 1015.5 |
| 20260901101508 | 22 | 120 | 0.0 | 0.0 | 0.00 | 0.00 | 0.00 | 93 | 1015.2 |
| 20260901101002 | 22 | 138 | 0.0 | 0.0 | 0.00 | 0.00 | 0.00 | 92 | 1015.3 |
| 20260901100502 | 22 | 117 | 0.0 | 0.0 | 0.00 | 0.00 | 0.00 | 92 | 1015.2 |
| 20260901100000 | 22 | 134 | 0.0 | 0.0 | 0.00 | 0.00 | 0.00 | 92 | 1015.4 |
| 20260901095459 | 22 | 131 | 0.0 | 0.0 | 0.00 | 0.00 | 0.00 | 92 | 1015.5 |
| 20260901094957 | 22 | 93 | 0.0 | 0.0 | 0.00 | 0.00 | 0.00 | 92 | 1015.4 |
| 20260901094452 | 22 | 117 | 0.0 | 0.0 | 0.00 | 0.00 | 0.00 | 93 | 1015.1 |
| 20260901093947 | 22 | 88 | 0.0 | 0.0 | 0.00 | 0.00 | 0.00 | 92 | 1015.2 |
| 20260901093441 | 22 | 126 | 0.0 | 0.0 | 0.00 | 0.00 | 0.00 | 91 | 1015.4 |
| 20260901092936 | 22 | 87 | 0.0 | 0.0 | 0.00 | 0.00 | 0.00 | 91 | 1015.2 |
| 20260901092432 | 22 | 100 | 0.0 | 0.0 | 0.00 | 0.00 | 0.00 | 91 | 1015.4 |
| 20260901091928 | 22 | 99 | 0.0 | 0.0 | 0.00 | 0.00 | 0.00 | 92 | 1015.5 |
| 20260901091428 | 22 | 161 | 0.0 | 0.0 | 0.00 | 0.00 | 0.00 | 92 | 1015.5 |
| 20260901090923 | 22 | 98 | 0.0 | 0.0 | 0.00 | 0.00 | 0.00 | 92 | 1015.5 |
| 20260901090422 | 22 | 120 | 0.0 | 0.0 | 0.00 | 0.00 | 0.00 | 91 | 1015.6 |
| 20260901085918 | 22 | 174 | 0.0 | 0.0 | 0.00 | 0.00 | 0.00 | 92 | 1015.6 |
| 20260901085414 | 22 | 122 | 0.0 | 0.0 | 0.00 | 0.00 | 0.00 | 91 | 1015.6 |
| 20260901084910 | 22 | 109 | 0.0 | 0.0 | 0.00 | 0.00 | 0.00 | 92 | 1015.8 |
| 20260901084406 | 22 | 132 | 0.0 | 0.0 | 0.00 | 0.00 | 0.00 | 91 | 1015.7 |
| 20260901083901 | 22 | 73 | 0.0 | 0.0 | 0.00 | 0.00 | 0.00 | 92 | 1015.6 |
| 20260901083356 | 22 | 98 | 0.0 | 0.0 | 0.00 | 0.00 | 0.00 | 91 | 1015.8 |
| 20260901082854 | 22 | 134 | 0.0 | 0.0 | 0.00 | 0.00 | 0.00 | 91 | 1015.9 |
| 20260901082349 | 22 | 140 | 0.0 | 0.0 | 0.00 | 0.00 | 0.00 | 92 | 1015.7 |
| 20260901081844 | 22 | 93 | 0.0 | 0.0 | 0.00 | 0.00 | 0.00 | 92 | 1015.6 |
| 20260901081340 | 22 | 99 | 0.0 | 0.0 | 0.00 | 0.00 | 0.00 | 92 | 1015.6 |
| 20260901080833 | 22 | 90 | 0.0 | 0.0 | 0.00 | 0.00 | 0.00 | 92 | 1015.6 |
| 20260901080328 | 22 | 122 | 0.0 | 0.0 | 0.00 | 0.00 | 0.00 | 91 | 1015.8 |
| 20260901075828 | 22 | 151 | 0.0 | 0.0 | 0.00 | 0.00 | 0.00 | 91 | 1016.0 |
| 20260901075323 | 22 | 177 | 0.0 | 0.0 | 0.00 | 0.00 | 0.00 | 92 | 1016.0 |
| 20260901074818 | 22 | 124 | 0.0 | 0.0 | 0.00 | 0.00 | 0.00 | 92 | 1015.8 |
| 20260901074312 | 22 | 132 | 0.0 | 0.0 | 0.00 | 0.00 | 0.00 | 92 | 1015.6 |
| 20260901073808 | 22 | 107 | 0.0 | 0.0 | 0.00 | 0.00 | 0.00 | 91 | 1015.8 |
| 20260901073303 | 22 | 105 | 0.0 | 0.0 | 0.00 | 0.00 | 0.00 | 90 | 1015.9 |
| 20260901072759 | 22 | 105 | 0.0 | 0.0 | 0.00 | 0.00 | 0.00 | 91 | 1015.7 |
| 20260901072259 | 22 | 138 | 0.0 | 0.0 | 0.00 | 0.00 | 0.00 | 91 | 1015.8 |
| 20260901071754 | 22 | 155 | 0.0 | 0.0 | 0.00 | 0.00 | 0.00 | 91 | 1015.6 |
| 20260901071253 | 22 | 116 | 0.0 | 0.0 | 0.00 | 0.00 | 0.00 | 91 | 1016.1 |
| 20260901070752 | 22 | 94 | 0.0 | 0.0 | 0.00 | 0.00 | 0.00 | 91 | 1016.0 |
| 20260901070248 | 22 | 92 | 0.0 | 0.0 | 0.00 | 0.00 | 0.00 | 90 | 1016.1 |
| 20260901065747 | 22 | 92 | 0.0 | 0.0 | 0.00 | 0.00 | 0.00 | 91 | 1015.9 |
| 20260901065242 | 22 | 96 | 0.0 | 0.0 | 0.00 | 0.00 | 0.00 | 92 | 1015.9 |
| 20260901064738 | 22 | 100 | 0.0 | 0.0 | 0.00 | 0.00 | 0.00 | 91 | 1016.0 |
| 20260901064234 | 22 | 89 | 0.0 | 0.0 | 0.00 | 0.00 | 0.00 | 91 | 1016.0 |
| 20260901063731 | 22 | 117 | 0.0 | 0.0 | 0.00 | 0.00 | 0.00 | 90 | 1016.2 |
| 20260901063227 | 22 | 78 | 0.0 | 0.0 | 0.00 | 0.00 | 0.00 | 91 | 1016.3 |
| 20260901062723 | 22 | 155 | 0.0 | 0.0 | 0.00 | 0.00 | 0.00 | 90 | 1016.1 |
| 20260901062219 | 22 | 114 | 0.0 | 0.0 | 0.00 | 0.00 | 0.00 | 89 | 1016.3 |
| 20260901061714 | 22 | 78 | 0.0 | 0.0 | 0.00 | 0.00 | 0.00 | 89 | 1016.3 |
| 20260901061214 | 22 | 69 | 0.0 | 0.0 | 0.00 | 0.00 | 0.00 | 90 | 1016.5 |
| 20260901060709 | 22 | 94 | 0.0 | 0.0 | 0.00 | 0.00 | 0.00 | 90 | 1016.4 |
| 20260901060159 | 22 | 103 | 0.0 | 0.0 | 0.00 | 0.00 | 0.00 | 91 | 1016.5 |
| 20260901055654 | 22 | 93 | 0.0 | 0.0 | 0.00 | 0.00 | 0.00 | 90 | 1016.5 |
| 20260901055151 | 22 | 111 | 0.0 | 0.0 | 0.00 | 0.00 | 0.00 | 90 | 1016.6 |
| 20260901054648 | 22 | 115 | 0.0 | 0.0 | 0.00 | 0.00 | 0.00 | 91 | 1016.9 |
| 20260901054144 | 22 | 129 | 0.0 | 0.0 | 0.00 | 0.00 | 0.00 | 90 | 1016.8 |
| 20260901053640 | 22 | 129 | 0.0 | 0.0 | 0.00 | 0.00 | 0.00 | 90 | 1016.8 |
| 20260901053136 | 22 | 101 | 0.0 | 0.0 | 0.00 | 0.00 | 0.00 | 89 | 1016.7 |
| 20260901052630 | 22 | 66 | 0.0 | 0.0 | 0.00 | 0.00 | 0.00 | 90 | 1016.9 |
| 20260901052126 | 22 | 88 | 0.0 | 0.0 | 0.00 | 0.00 | 0.00 | 90 | 1016.9 |
| 20260901051625 | 22 | 107 | 0.0 | 0.0 | 0.00 | 0.00 | 0.00 | 89 | 1017.1 |
| 20260901051124 | 22 | 100 | 0.0 | 0.0 | 0.00 | 0.00 | 0.00 | 89 | 1017.0 |
| 20260901050620 | 22 | 72 | 0.0 | 0.0 | 0.00 | 0.00 | 0.00 | 89 | 1017.0 |
| 20260901050115 | 22 | 123 | 0.0 | 0.0 | 0.00 | 0.00 | 0.00 | 88 | 1016.9 |
| 20260901045609 | 22 | 80 | 0.0 | 0.0 | 0.00 | 0.00 | 0.00 | 87 | 1016.9 |
| 20260901045104 | 22 | 43 | 0.0 | 0.0 | 0.00 | 0.00 | 0.00 | 87 | 1016.9 |
| 20260901044600 | 22 | 97 | 0.0 | 0.0 | 0.00 | 0.00 | 0.00 | 86 | 1017.1 |
| 20260901044055 | 22 | 130 | 0.0 | 0.0 | 0.00 | 0.00 | 0.00 | 87 | 1016.9 |
| 20260901043551 | 22 | 114 | 0.0 | 0.0 | 0.00 | 0.00 | 0.00 | 86 | 1017.0 |
| 20260901043047 | 22 | 95 | 0.0 | 0.0 | 0.00 | 0.00 | 0.00 | 87 | 1017.0 |
| 20260901042546 | 22 | 58 | 0.0 | 0.0 | 0.00 | 0.00 | 0.00 | 88 | 1017.0 |
| 20260901042041 | 22 | 154 | 0.0 | 0.0 | 0.00 | 0.00 | 0.00 | 88 | 1017.0 |
| 20260901041536 | 22 | 121 | 0.0 | 0.0 | 0.00 | 0.00 | 0.00 | 87 | 1017.3 |
| 20260901041036 | 22 | 127 | 0.0 | 0.0 | 0.00 | 0.00 | 0.00 | 86 | 1017.2 |
| 20260901040536 | 22 | 78 | 0.0 | 0.0 | 0.00 | 0.00 | 0.00 | 87 | 1017.2 |
| 20260901040031 | 22 | 162 | 0.0 | 0.0 | 0.00 | 0.00 | 0.00 | 86 | 1017.1 |
| 20260901035529 | 22 | 37 | 0.0 | 0.0 | 0.00 | 0.00 | 0.00 | 87 | 1017.1 |
| 20260901035028 | 22 | 150 | 0.0 | 0.0 | 0.00 | 0.00 | 0.00 | 85 | 1017.1 |
| 20260901034527 | 22 | 123 | 0.0 | 0.0 | 0.00 | 0.00 | 0.00 | 85 | 1017.2 |
| 20260901034022 | 22 | 103 | 0.0 | 0.0 | 0.00 | 0.00 | 0.00 | 86 | 1017.1 |
| 20260901033521 | 22 | 89 | 0.0 | 0.0 | 0.00 | 0.00 | 0.00 | 86 | 1017.3 |
| 20260901033021 | 22 | 83 | 0.0 | 0.0 | 0.00 | 0.00 | 0.00 | 87 | 1017.5 |
| 20260901032515 | 22 | 99 | 0.0 | 0.0 | 0.00 | 0.00 | 0.00 | 86 | 1017.3 |
| 20260901032015 | 22 | 104 | 0.0 | 0.0 | 0.00 | 0.00 | 0.00 | 85 | 1017.3 |
| 20260901031510 | 22 | 128 | 0.0 | 0.0 | 0.00 | 0.00 | 0.00 | 87 | 1017.4 |
| 20260901031006 | 22 | 129 | 0.0 | 0.0 | 0.00 | 0.00 | 0.00 | 87 | 1017.3 |
| 20260901030501 | 22 | 340 | 0.0 | 0.0 | 0.00 | 0.00 | 0.00 | 87 | 1017.2 |
| 20260901030000 | 22 | 99 | 0.0 | 0.0 | 0.00 | 0.00 | 0.00 | 85 | 1017.5 |
| 20260901025455 | 22 | 98 | 0.0 | 0.0 | 0.00 | 0.00 | 0.00 | 86 | 1017.4 |
| 20260901024954 | 22 | 103 | 0.0 | 0.0 | 0.00 | 0.00 | 0.00 | 85 | 1017.5 |
| 20260901024449 | 22 | 266 | 0.0 | 0.0 | 0.00 | 0.00 | 0.00 | 87 | 1017.9 |
| 20260901023948 | 22 | 91 | 0.0 | 0.0 | 0.00 | 0.00 | 0.00 | 86 | 1017.7 |
| 20260901023442 | 22 | 177 | 0.0 | 0.0 | 0.00 | 0.00 | 0.00 | 86 | 1018.0 |
| 20260901022937 | 22 | 281 | 0.0 | 0.0 | 0.00 | 0.00 | 0.00 | 86 | 1017.7 |
| 20260901022433 | 22 | 169 | 0.0 | 0.0 | 0.00 | 0.00 | 0.00 | 87 | 1017.7 |
| 20260901021928 | 22 | 250 | 0.0 | 0.0 | 0.00 | 0.00 | 0.00 | 87 | 1017.8 |
| 20260901021424 | 22 | 281 | 0.0 | 0.0 | 0.00 | 0.00 | 0.00 | 87 | 1018.0 |
| 20260901020919 | 22 | 42 | 0.0 | 0.0 | 0.00 | 0.00 | 0.00 | 86 | 1017.7 |
| 20260901020414 | 22 | 106 | 0.0 | 0.0 | 0.00 | 0.00 | 0.00 | 85 | 1017.8 |
| 20260901015913 | 22 | 114 | 0.0 | 0.0 | 0.00 | 0.00 | 0.00 | 85 | 1017.8 |
| 20260901015410 | 22 | 42 | 0.0 | 0.0 | 0.00 | 0.00 | 0.00 | 87 | 1017.8 |
| 20260901014909 | 22 | 36 | 0.0 | 0.0 | 0.00 | 0.00 | 0.00 | 86 | 1017.9 |
| 20260901014405 | 22 | 122 | 0.0 | 0.0 | 0.00 | 0.00 | 0.00 | 86 | 1017.6 |
| 20260901013900 | 22 | 330 | 0.0 | 0.0 | 0.00 | 0.00 | 0.00 | 86 | 1017.9 |
| 20260901013356 | 22 | 122 | 0.0 | 0.0 | 0.00 | 0.00 | 0.00 | 86 | 1018.0 |
| 20260901012852 | 22 | 153 | 0.0 | 0.0 | 0.00 | 0.00 | 0.00 | 85 | 1017.9 |
| 20260901012346 | 22 | 162 | 0.0 | 0.0 | 0.00 | 0.00 | 0.00 | 85 | 1017.9 |
| 20260901011842 | 22 | 355 | 0.0 | 0.0 | 0.00 | 0.00 | 0.00 | 85 | 1018.2 |
| 20260901011338 | 22 | 88 | 0.0 | 0.0 | 0.00 | 0.00 | 0.00 | 85 | 1018.2 |
| 20260901010837 | 22 | 325 | 0.0 | 0.0 | 0.00 | 0.00 | 0.00 | 85 | 1018.1 |
| 20260901010337 | 22 | 57 | 0.0 | 0.0 | 0.00 | 0.00 | 0.00 | 86 | 1017.9 |
| 20260901005835 | 22 | 55 | 0.0 | 0.0 | 0.00 | 0.00 | 0.00 | 86 | 1017.9 |
| 20260901005331 | 22 | 148 | 0.0 | 0.0 | 0.00 | 0.00 | 0.00 | 85 | 1017.8 |
| 20260901004826 | 22 | 112 | 0.0 | 0.0 | 0.00 | 0.00 | 0.00 | 85 | 1017.7 |
| 20260901004320 | 22 | 73 | 0.0 | 0.0 | 0.00 | 0.00 | 0.00 | 86 | 1017.6 |
| 20260901003821 | 22 | 76 | 0.0 | 0.0 | 0.00 | 0.00 | 0.00 | 85 | 1017.7 |
| 20260901003316 | 22 | 259 | 0.0 | 0.0 | 0.00 | 0.00 | 0.00 | 86 | 1017.8 |
| 20260901002814 | 22 | 335 | 0.0 | 0.0 | 0.00 | 0.00 | 0.00 | 86 | 1017.6 |
| 20260901002309 | 22 | 19 | 0.0 | 0.0 | 0.00 | 0.00 | 0.00 | 85 | 1017.5 |
| 20260901001804 | 22 | 69 | 0.0 | 0.0 | 0.00 | 0.00 | 0.00 | 85 | 1017.6 |
| 20260901001259 | 22 | 180 | 0.0 | 0.0 | 0.00 | 0.00 | 0.00 | 85 | 1017.8 |
| 20260901000754 | 22 | 319 | 0.0 | 0.0 | 0.00 | 0.00 | 0.00 | 84 | 1017.7 |
| 20260901000250 | 22 | 339 | 0.0 | 0.0 | 0.00 | 0.00 | 0.00 | 84 | 1017.8 |
| 20260831235748 | 22 | 43 | 0.0 | 0.0 | 0.00 | 0.00 | 0.00 | 84 | 1017.7 |